Date String (YYYY-MM-DD hh:mm:ss) UTC,Instrument flags,absolute air pressure of the measurement (hPa),sample flow rate (lpm),inlet stack bypass flow (lpm),air temperature of the measurement (°C),ambient temperature measured by the external sensor (°C),aerosol sample conditioner tube jacket temperature (°C),OPC LED temperature (°C),internal box temperature (°C),relative humidity of the measurement (%),span deviation,mass concentration of particles derived from Lorenz-Mie calculation of OPC scattering (μg/m³),mass concentration of particles derived from Lorenz-Mie calculation of OPC scattering (μg/m³),mass concentration of particles derived from Lorenz-Mie calculation of OPC scattering (μg/m³)
DateTimeUTC,F1_M11,P_M11,Q1_M11,Q2_M11,T1_M11,T2_M11,T3_M11,T4_M11,T5_M11,U1_M11,ZSPAN_M11,X2_M11,X0_M11,X1_M11
2023-10-17 16:00:00,SystemResetWarning,0830.3,5.01,000.00,029.1,025.3,000.0,037.5,030.5,15.5,0000.0,0002.95,0014.65,0001.83
2023-10-17 16:01:00,SystemResetWarning,0830.3,4.99,000.00,029.0,025.6,000.0,037.5,030.5,15.8,0000.0,0002.92,0012.79,0001.83
2023-10-17 16:02:00,SystemResetWarning,0830.3,5.00,000.00,029.0,026.0,000.0,037.5,030.5,16.2,0000.0,0002.96,0013.00,0001.83
2023-10-17 16:03:00,SystemResetWarning,0830.3,5.01,000.00,028.9,026.4,000.0,037.5,030.5,16.2,0000.0,0003.04,0012.73,0001.83
2023-10-17 16:04:00,SystemResetWarning,0830.4,5.00,000.00,028.9,026.7,000.0,037.5,030.5,15.6,0000.0,0003.11,0013.70,0001.83
2023-10-17 16:05:00,SystemResetWarning,0830.4,5.00,000.00,028.9,026.9,000.0,037.5,030.6,15.6,0000.0,0003.15,0014.27,0001.82
2023-10-17 16:06:00,SystemResetWarning,0830.4,5.00,000.00,029.0,027.2,000.0,037.5,030.6,15.6,0000.0,0003.18,0014.54,0001.81
2023-10-17 16:07:00,SystemResetWarning,0830.4,5.00,000.00,029.0,027.4,000.0,037.5,030.7,15.6,0000.0,0003.19,0015.38,0001.81
2023-10-17 16:08:00,SystemResetWarning,0830.4,5.00,000.00,029.0,027.5,000.0,037.5,030.8,15.2,0000.0,0003.18,0015.56,0001.81
2023-10-17 16:09:00,SystemResetWarning,0830.3,4.99,000.00,029.0,027.7,000.0,037.5,030.8,15.1,0000.0,0003.17,0016.20,0001.79
2023-10-17 16:10:00,SystemResetWarning,0830.3,4.99,000.00,029.1,027.8,000.0,037.5,030.8,14.9,0000.0,0003.16,0016.03,0001.80
2023-10-17 16:11:00,SystemResetWarning,0830.3,5.01,000.00,029.1,027.9,000.0,037.6,030.9,14.8,0000.0,0003.16,0015.58,0001.81
2023-10-17 16:12:00,SystemResetWarning,0830.3,5.00,000.00,029.1,028.0,000.0,037.6,030.9,14.9,0000.0,0003.18,0014.90,0001.83
2023-10-17 16:13:00,SystemResetWarning,0830.4,4.99,000.00,029.2,027.8,000.0,037.6,030.9,15.3,0000.0,0003.19,0014.87,0001.84
2023-10-17 16:14:00,SystemResetWarning,0830.3,4.99,000.00,029.1,026.3,000.0,037.5,030.8,15.1,0000.0,0003.19,0014.78,0001.85
2023-10-17 16:15:00,SystemResetWarning,0830.3,5.01,000.00,029.0,025.0,000.0,037.5,030.6,15.2,0000.0,0003.19,0014.10,0001.87
2023-10-17 16:16:00,SystemResetWarning,0830.3,5.01,000.00,029.0,025.1,000.0,037.4,030.4,15.0,0000.0,0003.22,0013.08,0001.88
2023-10-17 16:17:00,SystemResetWarning,0830.3,5.00,000.00,028.9,025.4,000.0,037.4,030.3,14.8,0000.0,0003.22,0013.50,0001.89
2023-10-17 16:18:00,SystemResetWarning,0830.3,5.00,000.00,028.8,025.7,000.0,037.4,030.3,15.0,0000.0,0003.24,0012.83,0001.87
2023-10-17 16:19:00,SystemResetWarning,0830.3,5.00,000.00,028.8,026.1,000.0,037.4,030.4,15.0,0000.0,0003.34,0014.23,0001.87
2023-10-17 16:20:00,SystemResetWarning,0830.3,5.01,000.00,028.8,026.5,000.0,037.4,030.4,14.3,0000.0,0003.48,0014.18,0001.89
2023-10-17 16:21:00,SystemResetWarning,0830.3,5.00,000.00,028.8,026.8,000.0,037.4,030.5,14.0,0000.0,0003.60,0014.39,0001.92
2023-10-17 16:22:00,SystemResetWarning,0830.4,5.00,000.00,028.8,027.0,000.0,037.4,030.6,14.0,0000.0,0003.66,0015.79,0001.92
2023-10-17 16:23:00,SystemResetWarning,0830.4,5.00,000.00,028.9,027.2,000.0,037.4,030.6,13.8,0000.0,0003.74,0017.30,0001.92
2023-10-17 16:24:00,SystemResetWarning,0830.4,5.00,000.00,028.9,027.4,000.0,037.4,030.6,13.9,0000.0,0003.76,0017.04,0001.92
2023-10-17 16:25:00,SystemResetWarning,0830.3,5.00,000.00,028.9,027.6,000.0,037.4,030.7,14.1,0000.0,0003.82,0017.49,0001.92
2023-10-17 16:26:00,SystemResetWarning,0830.3,5.00,000.00,029.0,027.7,000.0,037.4,030.8,14.4,0000.0,0003.87,0018.18,0001.92
2023-10-17 16:27:00,SystemResetWarning,0830.3,5.00,000.00,029.0,027.9,000.0,037.4,030.8,14.0,0000.0,0003.89,0018.11,0001.93
2023-10-17 16:28:00,SystemResetWarning,0830.2,5.00,000.00,029.0,027.9,000.0,037.5,030.9,14.2,0000.0,0003.93,0017.41,0001.94
2023-10-17 16:29:00,SystemResetWarning,0830.2,4.98,000.00,029.1,027.1,000.0,037.4,030.8,14.4,0000.0,0003.98,0017.21,0001.97
2023-10-17 16:30:00,SystemResetWarning,0830.2,5.00,000.00,029.0,025.3,000.0,037.4,030.6,14.6,0000.0,0004.05,0016.41,0002.00
2023-10-17 16:31:00,SystemResetWarning,0830.1,5.01,000.00,028.9,024.9,000.0,037.3,030.5,14.7,0000.0,0004.07,0017.19,0002.01
2023-10-17 16:32:00,SystemResetWarning,0830.1,5.00,000.00,028.8,025.1,000.0,037.3,030.3,15.0,0000.0,0004.10,0017.57,0002.01
2023-10-17 16:33:00,SystemResetWarning,0830.1,5.00,000.00,028.7,025.5,000.0,037.3,030.2,15.2,0000.0,0004.16,0017.86,0002.02
2023-10-17 16:34:00,SystemResetWarning,0830.1,5.00,000.00,028.7,025.8,000.0,037.3,030.3,15.3,0000.0,0004.28,0017.72,0002.03
2023-10-17 16:35:00,SystemResetWarning,0830.1,5.01,000.00,028.7,026.2,000.0,037.3,030.3,15.2,0000.0,0004.35,0017.90,0002.03
2023-10-17 16:36:00,SystemResetWarning,0830.1,5.00,000.00,028.7,026.5,000.0,037.3,030.4,15.2,0000.0,0004.37,0018.55,0002.03
2023-10-17 16:37:00,SystemResetWarning,0830.1,5.00,000.00,028.7,026.8,000.0,037.3,030.4,14.8,0000.0,0004.41,0018.00,0002.03
2023-10-17 16:38:00,SystemResetWarning,0830.1,5.00,000.00,028.7,027.0,000.0,037.3,030.5,14.9,0000.0,0004.38,0019.11,0002.00
2023-10-17 16:39:00,SystemResetWarning,0830.1,5.00,000.00,028.8,027.2,000.0,037.3,030.5,15.2,0000.0,0004.44,0020.57,0001.99
2023-10-17 16:40:00,SystemResetWarning,0830.1,5.01,000.00,028.8,027.4,000.0,037.3,030.6,15.2,0000.0,0004.51,0022.19,0001.98
2023-10-17 16:41:00,SystemResetWarning,0830.1,4.99,000.00,028.8,027.5,000.0,037.3,030.7,15.0,0000.0,0004.42,0021.73,0001.95
2023-10-17 16:42:00,SystemResetWarning,0830.1,4.99,000.00,028.9,027.7,000.0,037.3,030.7,15.1,0000.0,0004.32,0019.86,0001.90
2023-10-17 16:43:00,SystemResetWarning,0830.1,5.00,000.00,028.9,027.8,000.0,037.4,030.7,15.1,0000.0,0004.18,0019.31,0001.87
2023-10-17 16:44:00,SystemResetWarning,0830.1,5.00,000.00,029.0,027.6,000.0,037.4,030.8,14.9,0000.0,0004.07,0018.96,0001.86
2023-10-17 16:45:00,SystemResetWarning,0830.1,5.00,000.00,028.9,025.9,000.0,037.3,030.6,14.5,0000.0,0003.95,0017.18,0001.84
2023-10-17 16:46:00,SystemResetWarning,0830.0,5.01,000.00,028.9,024.8,000.0,037.2,030.4,14.7,0000.0,0003.77,0015.93,0001.83
2023-10-17 16:47:00,SystemResetWarning,0830.0,5.01,000.00,028.8,024.9,000.0,037.2,030.3,14.9,0000.0,0003.71,0015.54,0001.82
2023-10-17 16:48:00,SystemResetWarning,0830.0,5.00,000.00,028.7,025.3,000.0,037.2,030.2,15.2,0000.0,0003.59,0015.13,0001.82
2023-10-17 16:49:00,SystemResetWarning,0830.0,5.01,000.00,028.7,025.7,000.0,037.2,030.2,15.1,0000.0,0003.54,0014.52,0001.81
2023-10-17 16:50:00,SystemResetWarning,0830.0,5.00,000.00,028.6,026.0,000.0,037.2,030.3,14.8,0000.0,0003.42,0013.81,0001.80
2023-10-17 16:51:00,SystemResetWarning,0830.0,5.00,000.00,028.7,026.4,000.0,037.2,030.3,14.7,0000.0,0003.31,0013.01,0001.80
2023-10-17 16:52:00,SystemResetWarning,0830.0,5.00,000.00,028.7,026.7,000.0,037.2,030.4,14.8,0000.0,0003.24,0012.60,0001.80
2023-10-17 16:53:00,SystemResetWarning,0830.1,5.00,000.00,028.7,026.9,000.0,037.2,030.4,14.8,0000.0,0003.19,0012.87,0001.83
2023-10-17 16:54:00,SystemResetWarning,0830.0,5.00,000.00,028.7,027.2,000.0,037.2,030.5,15.0,0000.0,0003.23,0013.46,0001.83
2023-10-17 16:55:00,SystemResetWarning,0830.1,4.99,000.00,028.8,027.3,000.0,037.2,030.5,14.6,0000.0,0003.37,0013.26,0001.86
2023-10-17 16:56:00,SystemResetWarning,0830.0,5.00,000.00,028.8,027.5,000.0,037.2,030.6,14.5,0000.0,0003.43,0013.04,0001.87
2023-10-17 16:57:00,SystemResetWarning,0830.0,5.00,000.00,028.8,027.6,000.0,037.3,030.7,15.0,0000.0,0003.41,0012.93,0001.86
2023-10-17 16:58:00,SystemResetWarning,0830.0,5.00,000.00,028.9,027.8,000.0,037.3,030.7,15.1,0000.0,0003.36,0012.54,0001.84
2023-10-17 16:59:00,SystemResetWarning,0830.0,4.99,000.00,028.9,027.5,000.0,037.3,030.7,15.2,0000.0,0003.28,0011.75,0001.80
